Regional Weather Roundup
Issued by NWS Little Rock, AR

Home | Current Version | Previous Version | Text Only | Print | Product List | Glossary On
Versions: 1 2 3 4 5 6 7 8 9 10 11 12 13 14 15 16 17 18 19 20 21 22 23 24 25 26 27 28 29 30 31 32 33 34 35 36 37 38 39 40 41 42 43 44 45 46 47 48 49 50
000
ASUS44 KLZK 250305
RWRLZK

WEATHER ROUNDUP FOR ARKANSAS
NATIONAL WEATHER SERVICE LITTLE ROCK AR
1000 PM CDT MON APR 24 2017

NOTE: "FAIR" INDICATES FEW OR NO CLOUDS BELOW 12,000 FEET WITH NO
SIGNIFICANT WEATHER AND/OR OBSTRUCTIONS TO VISIBILITY.

ARZ001-003-010-029-250400-
NORTHWEST ARKANSAS

CITY           SKY/WX    TMP DP  RH WIND       PRES   REMARKS
FAYETTEVILLE   CLEAR     63  41  44 S5        29.68S
FORT SMITH     CLEAR     65  41  41 SE5       29.68R
HARRISON       CLEAR     59  39  47 SE8       29.71R
BENTONVILLE    PTCLDY    61  41  48 S5        29.69R
ROGERS         CLOUDY    61  43  51 SE8       29.69S
SILOAM SPGS    CLOUDY    61  39  44 S5        29.68R
HIGHFILL       CLOUDY    60  44  55 S7        29.68R
$$

ARZ004-005-016-250400-
NORTH CENTRAL ARKANSAS

CITY           SKY/WX    TMP DP  RH WIND       PRES   REMARKS
BATESVILLE     CLEAR    N/A N/A N/A SE3       29.75R
FLIPPIN        CLEAR     64  37  36 CALM      29.70R
$$

ARZ040-041-250400-
WEST CENTRAL ARKANSAS

CITY           SKY/WX    TMP DP  RH WIND       PRES   REMARKS
MENA           CLEAR     59  50  72 CALM      29.74R
MOUNT IDA      CLEAR     59  46  62 CALM      29.71R
$$

ARZ009-017-025-026-028-250400-
NORTHEAST ARKANSAS

CITY           SKY/WX    TMP DP  RH WIND       PRES   REMARKS
JONESBORO      CLEAR     57  54  89 CALM      29.75R
NEWPORT        CLEAR     59  53  80 SE8       29.74S
WALNUT RIDGE   CLEAR     63  52  67 S6        29.74S
BLYTHEVILLE    CLEAR     63  57  81 S3        29.76R
$$

ARZ022-023-033-042-044-250400-
CENTRAL ARKANSAS

CITY           SKY/WX    TMP DP  RH WIND       PRES   REMARKS
LITTLE ROCK    PTCLDY    59  49  69 S7        29.74S
N LITTLE ROCK    N/A     64  47  54 S6        29.74F
JACKSONVILLE   CLEAR     57  50  78 CALM      29.73S
CONWAY           N/A     61  46  59 S3        29.72R
SEARCY         CLEAR     57  51  80 SE3       29.76S
HOT SPRINGS    CLEAR     58  47  66 E6        29.74S
RUSSELLVILLE   CLEAR     61  45  55 CALM      29.72R
$$

ARZ036-250400-
EAST ARKANSAS

CITY           SKY/WX    TMP DP  RH WIND       PRES   REMARKS
WEST MEMPHIS   CLEAR     61  59  93 SE3       29.75S
$$

ARZ050-053-066-070-073-250400-
SOUTHWEST ARKANSAS

CITY           SKY/WX    TMP DP  RH WIND       PRES   REMARKS
ARKADELPHIA    FAIR      58  56  93 CALM      29.74S
CAMDEN         CLEAR     57  48  72 CALM      29.75R
TEXARKANA      CLEAR     62  44  51 S7        29.73S
EL DORADO      CLEAR     57  53  86 CALM      29.76S
DE QUEEN       CLEAR     57  54  89 CALM      29.71R
$$

ARZ056-057-069-250400-
SOUTHEAST ARKANSAS

CITY           SKY/WX    TMP DP  RH WIND       PRES   REMARKS
PINE BLUFF     PTCLDY    61  49  64 CALM      29.76R
STUTTGART      CLEAR     64  45  48 S6        29.76S
MONTICELLO     PTCLDY    59  50  72 S5        29.77R

$$





USA.gov is the U.S. government's official web portal to all federal, state and local government web resources and services.